Regional Weather Roundup
Issued by NWS

Home | Current Version | Previous Version | Graphics & Text | Print | Product List | Glossary On
Versions: 1 2 3 4 5 6 7 8 9 10 11 12 13 14 15 16 17 18 19 20 21 22 23 24 25 26 27 28 29 30 31 32 33 34 35 36 37 38 39 40 41 42 43 44 45 46 47 48 49 50
000
ASUS43 KLOT 300721
RWRIL

ILLINOIS REGIONAL WEATHER ROUNDUP
NATIONAL WEATHER SERVICE CHICAGO/ROMEOVILLE IL
200 AM CDT TUE JUN 30 2015

NOTE: "FAIR" INDICATES FEW OR NO CLOUDS BELOW 12,000 FEET WITH NO
SIGNIFICANT WEATHER AND/OR OBSTRUCTIONS TO VISIBILITY.

* THESE STATIONS ARE NOT UNDER NWS QUALITY CONTROL. THEY ALSO MAY NOT
  REPORT WEATHER SUCH AS PRECIPITATION OR FOG.

ILZ001-002-007-009-015-016-024-300800-
NORTHWEST ILLINOIS

CITY           SKY/WX    TMP DP  RH WIND       PRES   REMARKS
MOLINE         CLOUDY    66  64  93 W3        29.81S
STERLING*      CLOUDY    63  61  94 CALM      29.81S
SAVANNA*       MOCLDY    64  61  88 W8        29.81S
$$

ILZ003-004-008-010-011-017-018-300800-
NORTH CENTRAL ILLINOIS

CITY           SKY/WX    TMP DP  RH WIND       PRES   REMARKS
ROCKFORD       CLOUDY    63  60  90 NW9       29.81S
FREEPORT*      MOCLDY    59  58  97 NW5       29.82F FOG
ROCHELLE*      MOCLDY    61  60  95 NW5       29.81S
DE KALB*       MOCLDY    61  59  95 W9        29.79F
PERU*          MOCLDY    65  63  93 CALM      29.80R
$$

ILZ005-006-012>014-019>023-300800-
NORTHEAST ILLINOIS

CITY           SKY/WX    TMP DP  RH WIND       PRES   REMARKS
CHICAGO-OHARE  CLOUDY    65  63  93 S3        29.77S
CHICAGO-MIDWAY CLOUDY    68  65  90 CALM      29.77F FOG
AURORA         CLOUDY    64  60  87 W7        29.78F
LANSING*       PTCLDY    63  61  93 S3        29.78F
JOLIET*        MOCLDY    66  65  96 CALM      29.78S
WAUKEGAN       MOCLDY    61  60  97 CALM      29.77S FOG
DUPAGE AIRPORT CLOUDY    65  62  90 CALM      29.77S
KANKAKEE*      CLOUDY    65  64  96 NE5       29.80S
WHEELING       MOCLDY    66  63  90 CALM      29.78S
MORRIS*        LGT RAIN  64  61  90 CALM      29.76S
ROMEOVILLE*    CLOUDY    64  64 100 CALM      29.78S FOG
NORTHERLY ISL    N/A     66  63  90 W7          N/A
$$

LMZ740>746-300800-
SOUTHERN LAKE MICHIGAN

STATION/POSITION SKY/WX   TEMP    WIND        PRES    VSBY  WAVE
                          AIR SEA DIR/SP/G                  HT/PER
                          (F)     (DEG/KT/KT) (MB)    (MI)  (FT/S)
HARRISON CRIB              66     200/  8/ 11   N/A
BURNHAM HARBOR             66     270/  6/  8   N/A
CALUMET HARBOR             66     190/  4/  6   N/A
BURNS HARBOR               65     180/  7/ 13 1009.5F
MICHIGAN CITY              63     130/  9/ 11   N/A
MICHIGAN CITY 6N           64 64  180/ 10/ 12   N/A           1
ST. JOSEPH                 63 64                N/A           1
$$

ILZ025>027-034>036-040-047-049-050-058-095>099-300800-
WEST-CENTRAL ILLINOIS

CITY           SKY/WX    TMP DP  RH WIND       PRES   REMARKS
QUINCY         CLEAR     67  64  90 SW5       29.86S
GALESBURG*     MOCLDY    64  61  93 S3        29.83F
MACOMB*        PTCLDY    67  65  96 CALM      29.86R
JACKSONVILLE*  CLEAR     69  67  92 SW7       29.85S
PITTSFIELD*    CLEAR     68  65  89 SW3       29.88S
$$

ILZ028>032-037-038-041>044-048-051>054-059>061-300800-
CENTRAL ILLINOIS

CITY           SKY/WX    TMP DP  RH WIND       PRES   REMARKS
PONTIAC        MOCLDY    67  65  96 NW5       29.81R
BLOOMINGTON    MOCLDY    69  65  87 W9        29.84R
DECATUR        MOCLDY    70  66  87 NW7       29.84S
PEORIA         MOCLDY    67  63  87 SW5       29.82R
LACON*         MOCLDY    65  62  91 CALM      29.80S
LINCOLN*       MOCLDY    68  65  90 CALM      29.84R
SPRINGFIELD    PTCLDY    68  64  87 W5        29.85R
TAYLORVILLE    PTCLDY    66  64  94 SW5       29.85S
$$

ILZ033-039-045-046-055>057-062-063-300800-
EAST-CENTRAL ILLINOIS

CITY           SKY/WX    TMP DP  RH WIND       PRES   REMARKS
CHAMPAIGN      PTCLDY    67  65  93 SW5       29.83F
DANVILLE*      LGT RAIN  64  64 100 W7        29.81F
RANTOUL*       CLOUDY    67  64  89 S6        29.83R
MATTOON        PTCLDY    67  64  90 SW6       29.84F
PARIS*         PTCLDY    66  64  93 W6        29.85S
$$

ILZ079-100>102-300800-
SOUTHWEST ILLINOIS

CITY           SKY/WX    TMP DP  RH WIND       PRES   REMARKS
ALTON          CLEAR     67  67 100 CALM      29.87F
BELLEVILLE     CLEAR     68  68 100 SW5       29.86F
CAHOKIA*       CLEAR     69  67  93 S3        29.87F
SPARTA*        CLEAR     70  67  90 CALM      29.89F
$$

ILZ064>066-069>071-074>076-080>082-084>086-088>090-092>094-300800-
SOUTH-CENTRAL ILLINOIS

CITY           SKY/WX    TMP DP  RH WIND       PRES   REMARKS
CARBONDALE     CLOUDY    72  67  84 SW6       29.88S
CAIRO*         CLEAR     72  69  90 CALM      29.89S
EFFINGHAM*     CLEAR     66  63  90 CALM      29.86F
MARION         CLOUDY    72  68  88 CALM      29.89S
MT. VERNON     MOCLDY    70  64  83 S8        29.88S
CENTRALIA*     PTCLDY    69  65  87 SW5       29.87F
SALEM*         PTCLDY    69  66  89 SW3       29.87F
METROPOLIS*    CLOUDY    70  70 100 CALM      29.90S
$$

ILZ067-068-072-073-078-083-087-091-300800-
SOUTHEAST ILLINOIS

CITY           SKY/WX    TMP DP  RH WIND       PRES   REMARKS
LAWRENCEVILLE  CLEAR     68  65  90 CALM      29.86S
FLORA*         CLEAR     66  65  94 SW3       29.86F
FAIRFIELD*     MOCLDY    67  67  97 CALM      29.86S
HARRISBURG*    MOCLDY    69  69 100 S3        29.88F THUNDER
ROBINSON*      CLEAR     64  63  96 CALM      29.86S
CARMI*         MOCLDY    68  63  83 CALM      29.86F
$$

ABBREVIATIONS USED IN REMARKS
   TC - TEMPERATURE IN CELSIUS
  WCI - WIND CHILL INDEX
   HX - HEAT INDEX
  VSB - VISIBILITY
$$




USA.gov is the U.S. government's official web portal to all federal, state and local government web resources and services.